MGU-250

operational
NORAD ID: 28523 Int'l Des: 2005-002 Owner: MGU/KVR Country: RU
LEOCIRCULARPOLAR

About MGU-250

Description loading...

Live Position

Loading 3D Globe...

Upcoming Passes

Altitude History

Altitude vs Time

uPlot chart will show altitude changes over time

Two-Line Element Set

1 28523U 05002C 26049.72910200 .00000110 00000-0 78834-4 0 9995
2 28523 82.9514 135.2053 0036401 317.8095 42.0268 13.88054318 67520
Epoch: Feb 18, 2026 • Age: 13 hours

Current Status

Altitude 970.0 km
Velocity 7.36 km/s
Sub-Earth Point 78.04°N, 38.8°E
Launch Date Jan 20, 2005
Age 21 years
Type other

Technical Details

Classification Payload
Mass 30.00 kg
Dry Mass 30.00 kg
Total Mass 30.00 kg
Length 0.20 m
Diameter 0.30 m
Span 0.30 m
Shape Box
Manufacturer MGU
Bus Type Tatiana
Phase Status In Orbit
Owner/State MGU/KVR/RU

Large Constellations

Loading constellations...